Weather History for KBBW - August, 2014

Change the Weather History Date:

Wednesday, August 13, 2014

  Actual Average Record
Temperature  
Mean Temperature 71 °F 72 °F  
Max Temperature 85 °F 85 °F 102 °F (1938)
Min Temperature 56 °F 61 °F 39 °F (1920)
Degree Days  
Heating Degree Days 0 0  
Month to date heating degree days 0 0  
Since 1 June heating degree days 40 51  
Cooling Degree Days 6 8  
Month to date cooling degree days 109 111  
Year to date cooling degree days 573 585  
Since 1 June cooling degree days 495 551  
Growing Degree Days 20 (Base 50)    
Moisture  
Dew Point 60 °F    
Average Humidity 71    
Maximum Humidity 93    
Minimum Humidity 48    
Precipitation  
Precipitation 0.00 in 0.07 in 2.89 in (1910)
Sea Level Pressure  
Sea Level Pressure 30.06 in    
Wind  
Wind Speed 9 mph (SSE)    
Max Wind Speed 18 mph    
Max Gust Speed 26 mph    
Visibility 10 miles    
Events      
T = Trace of Precipitation, MM = Missing Value Source: NWS Daily Summary

Daily Weather History Graph

Daily Weather History Graph

Search for Another Location

Airport or City:

Trip Planner

Search our weather history database for the weather conditions in past years. The results will help you decide how hot, cold, wet, or windy it might be!

Date:

Astronomy

Aug. 13, 2014 Rise Set
Actual Time 6:45 AM CDT 8:40 PM CDT
Civil Twilight 6:15 AM CDT 9:10 PM CDT
Nautical Twilight 5:38 AM CDT 9:46 PM CDT
Astronomical Twilight 4:59 AM CDT 10:26 PM CDT
Moon 10:23 PM CDT (8/13) 10:18 AM CDT (8/13)
Length of Visible Light 14h 54m
Length of Day
13h 55m
Waning Gibbous, 87% of the Moon is Illuminated
Aug 13
Waning Gibbous
Aug 17
Last Quarter
Aug 25
New
Sep 2
First Quarter
Sep 8
Full

Hourly Weather History & Observations

Time (CDT) Temp. Heat Index Dew Point Humidity Pressure Visibility Wind Dir Wind Speed Gust Speed Precip Events Conditions
12:53 AM 59.0 °F - 55.4 °F 88% 30.14 in 10.0 mi Calm Calm - N/A   Clear
1:53 AM 57.9 °F - 55.0 °F 90% 30.09 in 10.0 mi Calm Calm - N/A   Clear
2:53 AM 60.1 °F - 57.0 °F 90% 30.09 in 10.0 mi SSW 3.5 mph - N/A   Clear
3:53 AM 59.0 °F - 55.9 °F 90% 30.09 in 10.0 mi SSE 3.5 mph - N/A   Clear
4:53 AM 55.9 °F - 54.0 °F 93% 30.10 in 8.0 mi Calm Calm - N/A   Clear
5:53 AM 57.0 °F - 55.0 °F 93% 30.09 in 8.0 mi SSE 3.5 mph - N/A   Clear
7:53 AM 62.1 °F - 57.0 °F 84% 30.11 in 10.0 mi SSE 3.5 mph - N/A   Clear
8:53 AM 66.9 °F - 59.0 °F 76% 30.10 in 10.0 mi SE 6.9 mph - N/A   Clear
9:53 AM 71.6 °F - 57.2 °F 60% 30.16 in 10.0 mi South 13.8 mph 20.7 mph N/A   Clear
10:53 AM 77.0 °F - 59.0 °F 54% 30.10 in 10.0 mi SSW 12.7 mph 20.7 mph N/A   Clear
11:53 AM 80.1 °F 80.9 °F 60.1 °F 50% 30.08 in 10.0 mi South 12.7 mph - N/A   Clear
12:53 PM 82.0 °F 83.0 °F 62.1 °F 51% 30.06 in 10.0 mi SSE 11.5 mph - N/A   Clear
1:53 PM 82.9 °F 83.7 °F 62.1 °F 49% 30.05 in 10.0 mi SSE 15.0 mph 23.0 mph N/A   Clear
2:53 PM 84.2 °F 85.0 °F 62.6 °F 48% 30.09 in 10.0 mi SSE 15.0 mph 25.3 mph N/A   Clear
3:53 PM 84.9 °F 86.6 °F 64.9 °F 51% 30.02 in 10.0 mi SSE 16.1 mph 23.0 mph N/A   Clear
4:53 PM 82.9 °F 84.4 °F 64.0 °F 53% 30.01 in 10.0 mi SSE 13.8 mph 23.0 mph N/A   Clear
5:53 PM 82.0 °F 83.8 °F 64.9 °F 56% 30.01 in 10.0 mi SSE 13.8 mph - N/A   Clear
6:53 PM 79.0 °F - 64.0 °F 60% 30.00 in 10.0 mi SE 11.5 mph - N/A   Clear
7:53 PM 77.0 °F - 64.0 °F 64% 29.99 in 10.0 mi SE 9.2 mph - N/A   Clear
8:53 PM 73.0 °F - 64.0 °F 73% 30.00 in 10.0 mi SE 11.5 mph - N/A   Clear
9:53 PM 68.0 °F - 63.0 °F 84% 30.01 in 10.0 mi ESE 8.1 mph - N/A   Clear
11:53 PM 66.0 °F - 63.0 °F 90% 30.02 in 10.0 mi SE 5.8 mph - N/A   Clear